• In Hungary
  • List of Countries
  • For 7 days
  • Water Temperature
  • Satellite Maps
  • Weather Map
  • News
  • Weather Widgets
  • user-avatar
    Login

    Hourly Weather Konjic

    Today, 22 July, Sunday

    Time Temperature Precipitation Wind Pressure Humidity
    00:00 +18°C° 0 mm 2 mps 695 mmHg 64%
    01:00 +18°C° 0 mm 2 mps 694 mmHg 65%
    02:00 +18°C° 0 mm 2 mps 694 mmHg 64%
    03:00 +17°C° 0 mm 2 mps 694 mmHg 63%
    04:00 +17°C° 0 mm 2 mps 694 mmHg 63%
    05:00 +19°C° 0 mm 2 mps 694 mmHg 63%
    06:00 +20°C° 0 mm 2 mps 694 mmHg 63%
    07:00 +23°C° 0 mm 2 mps 694 mmHg 63%
    08:00 +24°C° 0 mm 2 mps 695 mmHg 59%
    09:00 +26°C° 0 mm 3 mps 695 mmHg 56%
    10:00 +27°C° 0 mm 3 mps 695 mmHg 53%
    11:00 +27°C° 0.1 mm 3 mps 695 mmHg 53%
    12:00 +28°C° 0.1 mm 3 mps 695 mmHg 54%
    13:00 +28°C° 0 mm 3 mps 695 mmHg 55%
    14:00 +27°C° 0.4 mm 3 mps 695 mmHg 57%
    15:00 +27°C° 0.4 mm 3 mps 695 mmHg 59%
    16:00 +26°C° 0.4 mm 3 mps 695 mmHg 61%
    17:00 +25°C° 0.3 mm 2 mps 695 mmHg 68%
    18:00 +23°C° 0.3 mm 2 mps 694 mmHg 75%
    19:00 +21°C° 0.3 mm 1 mps 694 mmHg 82%
    20:00 +20°C° 0.2 mm 1 mps 694 mmHg 84%
    21:00 +19°C° 0.2 mm 1 mps 694 mmHg 86%
    22:00 +18°C° 0.2 mm 1 mps 694 mmHg 89%
    23:00 +18°C° 0.2 mm 1 mps 694 mmHg 90%

    Tomorrow, 23 July, Monday

    Time Temperature Precipitation Wind Pressure Humidity
    00:00 +16°C° 0.2 mm 1 mps 694 mmHg 91%
    01:00 +16°C° 0.2 mm 1 mps 694 mmHg 91%
    02:00 +16°C° 0.4 mm 1 mps 693 mmHg 92%
    03:00 +16°C° 0.4 mm 1 mps 693 mmHg 93%
    04:00 +16°C° 0.4 mm 1 mps 693 mmHg 93%
    05:00 +18°C° 1.2 mm 1 mps 693 mmHg 91%
    06:00 +19°C° 1.2 mm 1 mps 693 mmHg 89%
    07:00 +18°C° 1.2 mm 0 mps 693 mmHg 87%
    08:00 +20°C° 1.2 mm 1 mps 693 mmHg 85%
    09:00 +21°C° 1.2 mm 1 mps 693 mmHg 83%
    10:00 +21°C° 1.2 mm 1 mps 693 mmHg 80%
    11:00 +22°C° 0.9 mm 1 mps 693 mmHg 79%
    12:00 +22°C° 0.9 mm 1 mps 693 mmHg 78%
    13:00 +23°C° 0.9 mm 2 mps 693 mmHg 77%
    14:00 +21°C° 1.2 mm 2 mps 693 mmHg 80%
    15:00 +21°C° 1.2 mm 2 mps 693 mmHg 82%
    16:00 +20°C° 1.2 mm 2 mps 693 mmHg 84%
    17:00 +20°C° 0.6 mm 2 mps 693 mmHg 87%
    18:00 +19°C° 0.6 mm 2 mps 692 mmHg 89%
    19:00 +18°C° 0.6 mm 2 mps 692 mmHg 91%
    20:00 +17°C° 0 mm 2 mps 692 mmHg 92%
    21:00 +17°C° 0 mm 2 mps 693 mmHg 94%
    22:00 +16°C° 0 mm 2 mps 693 mmHg 95%
    23:00 +16°C° 0 mm 2 mps 693 mmHg 95%

    Day after tomorrow, 24 July, Tuesday

    Time Temperature Precipitation Wind Pressure Humidity
    00:00 +16°C° 0 mm 2 mps 693 mmHg 95%
    01:00 +16°C° 0 mm 2 mps 693 mmHg 95%
    02:00 +16°C° 0 mm 2 mps 693 mmHg 95%
    03:00 +16°C° 0 mm 2 mps 693 mmHg 95%
    04:00 +16°C° 0 mm 2 mps 693 mmHg 94%
    05:00 +17°C° 0 mm 3 mps 693 mmHg 93%
    06:00 +18°C° 0 mm 3 mps 693 mmHg 91%
    07:00 +18°C° 0 mm 3 mps 694 mmHg 89%
    08:00 +20°C° 0.1 mm 3 mps 694 mmHg 83%
    09:00 +21°C° 0.1 mm 3 mps 694 mmHg 77%
    10:00 +22°C° 0.1 mm 4 mps 695 mmHg 72%
    11:00 +22°C° 0.1 mm 4 mps 695 mmHg 68%
    12:00 +23°C° 0.1 mm 4 mps 694 mmHg 65%
    13:00 +25°C° 0.1 mm 4 mps 694 mmHg 61%
    14:00 +25°C° 0.3 mm 3 mps 694 mmHg 63%
    15:00 +25°C° 0.3 mm 3 mps 694 mmHg 66%
    16:00 +24°C° 0.3 mm 3 mps 694 mmHg 68%
    17:00 +22°C° 0.1 mm 3 mps 694 mmHg 73%
    18:00 +21°C° 0.1 mm 2 mps 694 mmHg 79%
    19:00 +19°C° 0.1 mm 2 mps 693 mmHg 85%
    20:00 +18°C° 0.1 mm 2 mps 693 mmHg 86%
    21:00 +17°C° 0.1 mm 2 mps 693 mmHg 88%
    22:00 +17°C° 0.1 mm 2 mps 693 mmHg 89%
    23:00 +16°C° 0.1 mm 2 mps 693 mmHg 89%

    25 July, Wednesday

    Time Temperature Precipitation Wind Pressure Humidity
    00:00 +16°C° 0.1 mm 2 mps 693 mmHg 90%
    01:00 +16°C° 0.1 mm 2 mps 693 mmHg 90%
    02:00 +16°C° 0.2 mm 2 mps 693 mmHg 90%
    03:00 +16°C° 0.2 mm 2 mps 693 mmHg 91%
    04:00 +16°C° 0.2 mm 2 mps 693 mmHg 91%
    05:00 +17°C° 0.2 mm 2 mps 694 mmHg 89%
    06:00 +18°C° 0.2 mm 2 mps 694 mmHg 87%
    07:00 +19°C° 0.2 mm 2 mps 694 mmHg 84%
    08:00 +21°C° 0.1 mm 2 mps 694 mmHg 78%
    09:00 +22°C° 0.1 mm 3 mps 695 mmHg 72%
    10:00 +25°C° 0.1 mm 3 mps 695 mmHg 66%
    11:00 +25°C° 0.4 mm 3 mps 695 mmHg 65%
    12:00 +26°C° 0.4 mm 3 mps 695 mmHg 64%
    13:00 +26°C° 0.4 mm 3 mps 695 mmHg 63%
    14:00 +26°C° 0.6 mm 3 mps 695 mmHg 65%
    15:00 +26°C° 0.6 mm 3 mps 694 mmHg 67%
    16:00 +25°C° 0.6 mm 2 mps 694 mmHg 68%
    17:00 +24°C° 0.3 mm 2 mps 694 mmHg 74%
    18:00 +21°C° 0.3 mm 2 mps 694 mmHg 80%
    19:00 +20°C° 0.3 mm 2 mps 694 mmHg 86%
    20:00 +19°C° 0 mm 2 mps 694 mmHg 88%
    21:00 +19°C° 0 mm 1 mps 694 mmHg 90%
    22:00 +18°C° 0 mm 1 mps 694 mmHg 92%
    23:00 +18°C° 0 mm 1 mps 694 mmHg 92%

    26 July, Thursday

    Time Temperature Precipitation Wind Pressure Humidity
    00:00 +18°C° 0 mm 1 mps 694 mmHg 92%
    01:00 +16°C° 0 mm 1 mps 694 mmHg 92%
    02:00 +16°C° 0 mm 1 mps 693 mmHg 91%
    03:00 +16°C° 0 mm 1 mps 693 mmHg 91%
    04:00 +16°C° 0 mm 1 mps 693 mmHg 91%
    05:00 +18°C° 0 mm 1 mps 694 mmHg 87%
    06:00 +20°C° 0 mm 1 mps 694 mmHg 84%
    07:00 +21°C° 0 mm 1 mps 695 mmHg 80%
    08:00 +23°C° 0 mm 2 mps 695 mmHg 72%
    09:00 +25°C° 0 mm 2 mps 695 mmHg 64%
    10:00 +26°C° 0 mm 2 mps 696 mmHg 57%
    11:00 +27°C° 0.1 mm 2 mps 696 mmHg 56%
    12:00 +28°C° 0.1 mm 2 mps 696 mmHg 54%
    13:00 +28°C° 0.1 mm 2 mps 696 mmHg 53%
    14:00 +28°C° 0.7 mm 2 mps 695 mmHg 57%
    15:00 +27°C° 0.7 mm 2 mps 695 mmHg 61%
    16:00 +27°C° 0.7 mm 2 mps 695 mmHg 65%
    17:00 +25°C° 0.3 mm 2 mps 695 mmHg 70%
    18:00 +23°C° 0.3 mm 2 mps 695 mmHg 76%
    19:00 +22°C° 0.3 mm 1 mps 695 mmHg 81%
    20:00 +21°C° 0 mm 1 mps 695 mmHg 83%
    21:00 +20°C° 0 mm 1 mps 695 mmHg 85%
    22:00 +19°C° 0 mm 1 mps 695 mmHg 88%
    23:00 +18°C° 0 mm 1 mps 695 mmHg 88%

    27 July, Friday

    Time Temperature Precipitation Wind Pressure Humidity
    00:00 +18°C° 0 mm 1 mps 695 mmHg 89%
    01:00 +18°C° 0 mm 1 mps 695 mmHg 89%
    02:00 +18°C° 0 mm 1 mps 694 mmHg 89%
    03:00 +16°C° 0 mm 1 mps 694 mmHg 90%
    04:00 +16°C° 0 mm 1 mps 694 mmHg 90%
    05:00 +19°C° 0 mm 1 mps 695 mmHg 86%
    06:00 +20°C° 0 mm 1 mps 695 mmHg 82%
    07:00 +22°C° 0 mm 1 mps 696 mmHg 78%
    08:00 +24°C° 0 mm 1 mps 696 mmHg 70%
    09:00 +25°C° 0 mm 1 mps 696 mmHg 62%
    10:00 +27°C° 0 mm 2 mps 697 mmHg 53%
    11:00 +28°C° 0 mm 2 mps 696 mmHg 52%
    12:00 +28°C° 0 mm 2 mps 696 mmHg 50%
    13:00 +29°C° 0 mm 2 mps 696 mmHg 48%
    14:00 +29°C° 0.1 mm 2 mps 696 mmHg 51%
    15:00 +28°C° 0.1 mm 2 mps 696 mmHg 55%
    16:00 +28°C° 0.1 mm 2 mps 696 mmHg 58%
    17:00 +26°C° 0.2 mm 2 mps 696 mmHg 65%
    18:00 +24°C° 0.2 mm 1 mps 695 mmHg 71%
    19:00 +22°C° 0.2 mm 1 mps 695 mmHg 78%
    20:00 +21°C° 0 mm 1 mps 695 mmHg 81%
    21:00 +20°C° 0 mm 1 mps 695 mmHg 84%
    22:00 +19°C° 0 mm 1 mps 695 mmHg 86%
    23:00 +19°C° 0 mm 1 mps 695 mmHg 87%
    Show more